Winslow, AZ

12:02 PM MST on August 22, 2017 (GMT -0700)
Winslow-Lindbergh Regional

Weather History for KINW - April, 2014

Change the Weather History Date:

Monday, April 28, 2014

  Actual Average Record
Temperature  
Mean Temperature 54 °F 58 °F  
Max Temperature 71 °F 76 °F 87 °F (2000)
Min Temperature 37 °F 41 °F 25 °F (2008)
Degree Days  
Heating Degree Days 11 7  
Month to date heating degree days 277 313  
Since 1 July heating degree days 4135 4366  
Cooling Degree Days 0 0  
Month to date cooling degree days 1 0  
Year to date cooling degree days 1 0  
Growing Degree Days 4 (Base 50)    
Moisture  
Dew Point 19 °F    
Average Humidity 35    
Maximum Humidity 59    
Minimum Humidity 11    
Precipitation  
Precipitation 0.00 in 0.01 in 0.44 in (1953)
Month to date precipitation 0.16 0.25  
Year to date precipitation 1.18 1.77  
Sea Level Pressure  
Sea Level Pressure 29.92 in    
Wind  
Wind Speed 13 mph (NW)    
Max Wind Speed 30 mph    
Max Gust Speed 36 mph    
Visibility 10 miles    
Events      
T = Trace of Precipitation, MM = Missing Value Source: NWS Daily Summary

Daily Weather History Graph

Daily Weather History Graph

Search for Another Location

Airport or City:

Trip Planner

Search our weather history database for the weather conditions in past years. The results will help you decide how hot, cold, wet, or windy it might be!

Date:

Astronomy

Apr. 28, 2014 Rise Set
Actual Time 5:35 AM MST 7:06 PM MST
Civil Twilight 5:08 AM MST 7:32 PM MST
Nautical Twilight 4:36 AM MST 8:05 PM MST
Astronomical Twilight 4:02 AM MST 8:39 PM MST
Moon 5:13 AM MST (4/28) 6:48 PM MST (4/28)
Length of Visible Light 14h 24m
Length of Day
13h 30m
Waning Crescent, 0% of the Moon is Illuminated
Apr 28
Waning Crescent
Apr 28
New
May 6
First Quarter
May 14
Full
May 21
Last Quarter

Hourly Weather History & Observations

Time (MST) Temp. Windchill Dew Point Humidity Pressure Visibility Wind Dir Wind Speed Gust Speed Precip Events Conditions
12:56 AM 42.1 °F 37.1 °F 26.1 °F 53% 29.86 in 10.0 mi WSW 8.1 mph - N/A   Clear
1:56 AM 45.0 °F 38.9 °F 26.1 °F 48% 29.83 in 10.0 mi WSW 12.7 mph - N/A   Clear
2:56 AM 43.0 °F 39.5 °F 25.0 °F 49% 29.83 in 10.0 mi WSW 5.8 mph - N/A   Clear
3:56 AM 46.9 °F - 23.0 °F 39% 29.82 in 10.0 mi WSW 4.6 mph - N/A   Clear
4:56 AM 41.0 °F 39.0 °F 25.0 °F 53% 29.86 in 10.0 mi Variable 3.5 mph - N/A   Clear
5:56 AM 37.9 °F 34.4 °F 24.1 °F 57% 29.89 in 10.0 mi West 4.6 mph - N/A   Clear
6:56 AM 46.4 °F 44.3 °F 26.6 °F 46% 29.99 in 10.0 mi NW 4.6 mph - N/A   Clear
7:56 AM 57.0 °F - 26.1 °F 30% 29.89 in 10.0 mi West 15.0 mph 19.6 mph N/A   Clear
8:56 AM 61.0 °F - 24.1 °F 24% 29.90 in 10.0 mi NW 17.3 mph 29.9 mph N/A   Clear
9:56 AM 61.0 °F - 24.1 °F 24% 29.92 in 10.0 mi NNW 19.6 mph 31.1 mph N/A   Clear
10:56 AM 64.0 °F - 21.9 °F 20% 29.92 in 10.0 mi NNW 20.7 mph 28.8 mph N/A   Clear
11:56 AM 64.9 °F - 21.9 °F 19% 29.91 in 10.0 mi NW 16.1 mph 25.3 mph N/A   Clear
12:56 PM 66.9 °F - 23.0 °F 19% 29.90 in 10.0 mi NW 17.3 mph 32.2 mph N/A   Clear
1:56 PM 66.9 °F - 21.9 °F 18% 29.88 in 10.0 mi NW 13.8 mph 27.6 mph N/A   Clear
2:56 PM 69.1 °F - 18.0 °F 14% 29.87 in 10.0 mi NW 16.1 mph 27.6 mph N/A   Clear
3:56 PM 69.1 °F - 14.0 °F 12% 29.85 in 10.0 mi NW 26.5 mph 35.7 mph N/A   Clear
4:56 PM 66.9 °F - 17.1 °F 15% 29.89 in 10.0 mi NNW 16.1 mph 26.5 mph N/A   Clear
5:56 PM 64.9 °F - 14.0 °F 14% 29.92 in 10.0 mi North 16.1 mph 26.5 mph N/A   Clear
6:56 PM 61.0 °F - 12.0 °F 15% 29.94 in 10.0 mi North 15.0 mph - N/A   Clear
7:56 PM 57.0 °F - 3.0 °F 11% 29.96 in 10.0 mi NNW 12.7 mph - N/A   Clear
8:56 PM 54.0 °F - 7.0 °F 15% 30.00 in 10.0 mi NNW 12.7 mph - N/A   Clear
9:56 PM 52.0 °F - 9.0 °F 18% 30.04 in 10.0 mi NW 12.7 mph - N/A   Clear
10:56 PM 50.0 °F - 10.0 °F 20% 30.06 in 10.0 mi NW 11.5 mph - N/A   Clear
11:56 PM 46.9 °F - 10.0 °F 22% 30.09 in 10.0 mi North 3.5 mph - N/A   Clear